DOVE 2                  
1 39132U 13015C   19261.20289197  .00000039  00000-0  14544-4 0  9999
2 39132  64.8756 184.3421 0028790 304.4963 171.2793 15.07351455352516
AIST-2 (RS-43)          
1 39133U 13015D   19261.18684364 -.00000040  00000-0  97282-5 0  9996
2 39133  64.8750 203.5665 0028621 305.7847  54.0617 15.04773762352129
SOMP                    
1 39134U 13015E   19260.86566868  .00000705  00000-0  41313-4 0  9999
2 39134  64.8620  85.0168 0035663 289.1062  70.6205 15.20315647354070
BEESAT-3                
1 39135U 13015F   19260.88424233  .00000442  00000-0  31629-4 0  9998
2 39135  64.8678 104.5491 0033325 299.2983  60.4814 15.17596769353699
BEESAT-2                
1 39136U 13015G   19260.89004965  .00000555  00000-0  37799-4 0  9995
2 39136  64.8682 108.6129 0025010 303.8942  55.9804 15.17016347353616